FW9291 Weather Reports


time (UTC)temp
C
wind
direction
speed
KPH
gust
KPH
rain 1hr
cm
rain 24hr
cm
rain mn
cm
humidity
%
barometer
mb
20260504020440 15 81 4.8 9.7 0.00 0.00 0.00 74 1033.0
20260504015937 15 53 4.8 11.3 0.00 0.00 0.00 74 1032.9
20260504015439 14 32 4.8 11.3 0.00 0.00 0.00 74 1033.0
20260504013936 15 36 4.8 9.7 0.00 0.00 0.00 74 1033.0
20260504013433 15 41 4.8 9.7 0.00 0.00 0.00 73 1033.0
20260504012932 15 17 4.8 12.9 0.00 0.00 0.00 74 1032.9
20260504012433 15 61 4.8 12.9 0.00 0.00 0.00 75 1032.9
20260504011935 14 30 6.4 12.9 0.00 0.00 0.00 75 1033.1
20260504011435 14 46 6.4 12.9 0.00 0.00 0.00 75 1032.9
20260504010430 15 96 4.8 9.7 0.00 0.00 0.00 74 1033.2
20260504005929 15 54 6.4 9.7 0.00 0.00 0.00 73 1033.4
20260504005427 15 46 4.8 8.0 0.00 0.00 0.00 74 1033.4
20260504004928 15 63 4.8 9.7 0.00 0.00 0.00 74 1033.5
20260504004425 14 52 6.4 9.7 0.00 0.00 0.00 75 1033.6
20260504003926 14 65 4.8 9.7 0.00 0.00 0.00 74 1033.7
20260504003424 14 53 4.8 11.3 0.00 0.00 0.00 75 1033.7
20260504002923 15 94 4.8 11.3 0.00 0.00 0.00 73 1033.8
20260504002420 15 94 4.8 8.0 0.00 0.00 0.00 75 1033.9
20260504001924 14 40 4.8 11.3 0.00 0.00 0.00 75 1033.9
20260504001424 14 93 4.8 11.3 0.00 0.00 0.00 76 1033.9
20260504000423 14 80 4.8 9.7 0.00 0.00 0.00 75 1034.0
20260503235922 14 56 4.8 9.7 0.00 0.00 0.00 76 1034.1
20260503235421 13 88 4.8 9.7 0.00 0.00 0.00 77 1034.2
20260503234920 13 53 6.4 9.7 0.00 0.00 0.00 75 1034.2
20260503234419 13 45 6.4 12.9 0.00 0.00 0.00 76 1034.3
20260503233917 13 51 6.4 12.9 0.00 0.00 0.00 76 1034.4
20260503233419 14 76 8.0 12.9 0.00 0.00 0.00 76 1034.5
20260503232918 14 47 6.4 12.9 0.00 0.00 0.00 75 1034.5
20260503232416 14 76 4.8 11.3 0.00 0.00 0.00 76 1034.5
20260503231417 14 237 1.6 8.0 0.00 0.00 0.00 74 1034.5
20260503230920 13 197 1.6 4.8 0.00 0.00 0.00 77 1034.6
20260503225917 13 209 3.2 6.4 0.00 0.00 0.00 77 1034.6
20260503225418 13 281 3.2 8.0 0.00 0.00 0.00 77 1034.7
20260503224918 13 175 3.2 8.0 0.00 0.00 0.00 77 1034.6
20260503224416 13 189 4.8 8.0 0.00 0.00 0.00 78 1034.8
20260503223917 13 260 3.2 8.0 0.00 0.00 0.00 79 1034.7
20260503222917 12 242 4.8 8.0 0.00 0.00 0.00 79 1034.9
20260503222416 12 254 4.8 11.3 0.00 0.00 0.00 80 1034.8
20260503221917 12 246 4.8 11.3 0.00 0.00 0.00 80 1035.0
20260503220918 11 294 4.8 11.3 0.00 0.00 0.00 81 1035.1
20260503220422 11 240 4.8 11.3 0.00 0.00 0.00 82 1035.1
20260503215922 11 246 4.8 11.3 0.00 0.00 0.00 82 1035.0
20260503215422 11 203 4.8 8.0 0.00 0.00 0.00 84 1035.0
20260503214417 10 209 4.8 12.9 0.00 0.00 0.00 86 1035.1
20260503213918 10 221 4.8 11.3 0.00 0.00 0.00 87 1035.2
20260503212915 10 198 4.8 12.9 0.00 0.00 0.00 90 1035.2
20260503212414 9 200 4.8 8.0 0.00 0.00 0.00 91 1035.2
20260503211915 9 247 4.8 8.0 0.00 0.00 0.00 92 1035.2
20260503211417 9 223 4.8 9.7 0.00 0.00 0.00 93 1035.0
20260503210914 8 244 6.4 9.7 0.00 0.00 0.00 93 1035.0
20260503210415 8 215 4.8 9.7 0.00 0.00 0.00 93 1035.0
20260503205915 8 215 4.8 11.3 0.00 0.00 0.00 94 1035.0
20260503205414 8 222 4.8 11.3 0.00 0.00 0.00 94 1035.0
20260503204911 8 243 4.8 8.0 0.00 0.00 0.00 94 1035.0
20260503204407 8 229 3.2 6.4 0.00 0.00 0.00 94 1035.0
20260503203906 8 240 3.2 6.4 0.00 0.00 0.00 94 1035.1
20260503202907 7 249 3.2 6.4 0.00 0.00 0.00 94 1034.9
20260503202407 8 240 3.2 6.4 0.00 0.00 0.00 94 1034.9
20260503201906 8 240 3.2 6.4 0.00 0.00 0.00 94 1034.9
20260503201410 8 228 3.2 9.7 0.00 0.00 0.00 94 1034.8
20260503200906 8 238 4.8 9.7 0.00 0.00 0.00 94 1034.7
20260503200407 7 241 4.8 9.7 0.00 0.00 0.00 94 1034.7
20260503195907 7 232 4.8 8.0 0.00 0.00 0.00 94 1034.7
20260503195408 7 229 3.2 6.4 0.00 0.00 0.00 94 1034.7
20260503194407 7 240 3.2 8.0 0.00 0.00 0.00 94 1034.6
20260503193906 7 246 3.2 8.0 0.00 0.00 0.00 94 1034.5
20260503193410 7 240 3.2 6.4 0.00 0.00 0.00 94 1034.5
20260503192406 7 242 3.2 6.4 0.00 0.00 0.00 94 1034.5
20260503191909 6 238 3.2 6.4 0.00 0.00 0.00 94 1034.5
20260503191409 6 244 3.2 6.4 0.00 0.00 0.00 94 1034.4
20260503190908 6 251 1.6 6.4 0.00 0.00 0.00 94 1034.4
20260503190405 6 235 1.6 4.8 0.00 0.00 0.00 94 1034.4
20260503185905 6 235 1.6 6.4 0.00 0.00 0.00 94 1034.4
20260503185406 5 235 0.0 6.4 0.00 0.00 0.00 94 1034.3
20260503184909 5 217 0.0 1.6 0.00 0.00 0.00 93 1034.4
20260503184405 5 217 0.0 1.6 0.00 0.00 0.00 93 1034.2
20260503183903 4 216 0.0 1.6 0.00 0.00 0.00 92 1034.3
20260503183404 4 216 0.0 1.6 0.00 0.00 0.00 92 1034.3
20260503182903 4 216 0.0 1.6 0.00 0.00 0.00 92 1034.3
20260503182404 5 217 0.0 0.0 0.00 0.00 0.00 92 1034.2
20260503181904 5 216 0.0 1.6 0.00 0.00 0.00 92 1034.1
20260503181404 5 217 0.0 1.6 0.00 0.00 0.00 91 1033.8
20260503180904 5 217 0.0 1.6 0.00 0.00 0.00 92 1033.7
20260503180409 5 217 1.6 3.2 0.00 0.00 0.00 92 1033.7
20260503175908 5 217 1.6 3.2 0.00 0.00 0.00 92 1033.7
20260503175407 5 217 1.6 3.2 0.00 0.00 0.00 92 1033.7
20260503174905 5 216 1.6 3.2 0.00 0.00 0.00 92 1033.7
20260503174359 5 216 1.6 3.2 0.00 0.00 0.00 92 1033.7
20260503173901 5 217 1.6 4.8 0.00 0.00 0.00 92 1033.7
20260503172901 6 216 1.6 6.4 0.00 0.00 0.00 92 1033.7
20260503172400 6 223 3.2 4.8 0.00 0.00 0.00 92 1033.6
20260503171855 6 224 3.2 6.4 0.00 0.00 0.00 93 1033.7
20260503171352 6 211 1.6 6.4 0.00 0.00 0.00 93 1033.7
20260503170850 6 196 3.2 6.4 0.00 0.00 0.00 93 1033.7
20260503150832 5 65 1.6 4.8 0.00 0.00 0.00 92 1033.9
20260503131321 6 65 0.0 0.0 0.00 0.00 0.00 91 1034.3
20260503130817 6 65 0.0 0.0 0.00 0.00 0.00 91 1034.3
20260503130321 6 64 0.0 0.0 0.00 0.00 0.00 91 1034.3
20260503110805 7 65 0.0 0.0 0.00 0.00 0.00 91 1034.6
20260503110319 7 65 0.0 0.0 0.00 0.00 0.00 90 1034.6
20260503100257 8 65 0.0 1.6 0.00 0.00 0.00 90 1034.8
20260503081234 9 65 0.0 0.0 0.00 0.00 0.00 87 1034.1
20260503080735 10 65 0.0 0.0 0.00 0.00 0.00 87 1034.0
20260503072725 11 65 0.0 0.0 0.00 0.00 0.00 86 1033.9
20260503071712 11 64 0.0 0.0 0.00 0.00 0.00 86 1033.8
20260503071213 11 65 0.0 0.0 0.00 0.00 0.00 86 1033.8
20260503070710 11 65 0.0 0.0 0.00 0.00 0.00 86 1033.8
20260503070209 11 65 0.0 0.0 0.00 0.00 0.00 85 1033.7
20260503054707 13 65 0.0 0.0 0.00 0.00 0.00 79 1033.5
20260503054204 13 65 0.0 0.0 0.00 0.00 0.00 79 1033.5
20260503053205 13 65 0.0 0.0 0.00 0.00 0.00 78 1033.4
20260503052707 13 65 0.0 0.0 0.00 0.00 0.00 78 1033.4
20260503051706 14 65 1.6 4.8 0.00 0.00 0.00 77 1033.4
20260503051204 14 65 1.6 4.8 0.00 0.00 0.00 77 1033.4
20260503050710 14 88 1.6 4.8 0.00 0.00 0.00 76 1033.3
20260503050203 14 88 1.6 6.4 0.00 0.00 0.00 76 1033.4
20260503045707 14 86 3.2 6.4 0.00 0.00 0.00 76 1033.4
20260503044705 14 79 3.2 6.4 0.00 0.00 0.00 75 1033.4
20260503044206 15 54 3.2 9.7 0.00 0.00 0.00 75 1033.4
20260503043703 15 88 3.2 9.7 0.00 0.00 0.00 74 1033.3
20260503043203 15 116 3.2 9.7 0.00 0.00 0.00 74 1033.2
20260503042705 15 84 4.8 9.7 0.00 0.00 0.00 74 1033.2
20260503042203 15 61 4.8 9.7 0.00 0.00 0.00 73 1033.3
20260503041703 15 88 4.8 9.7 0.00 0.00 0.00 73 1033.2
20260503041205 15 118 4.8 9.7 0.00 0.00 0.00 74 1033.3
20260503040705 15 73 4.8 11.3 0.00 0.00 0.00 73 1033.2
20260503040206 15 52 4.8 11.3 0.00 0.00 0.00 72 1033.1
20260503035204 15 32 4.8 9.7 0.00 0.00 0.00 72 1033.1
20260503034202 15 86 4.8 9.7 0.00 0.00 0.00 71 1033.0
20260503033701 15 108 4.8 9.7 0.00 0.00 0.00 70 1033.1
20260503033203 15 77 6.4 12.9 0.00 0.00 0.00 72 1033.0
20260503032703 15 100 6.4 14.5 0.00 0.00 0.00 71 1033.0
20260503032157 15 50 6.4 14.5 0.00 0.00 0.00 71 1033.0
20260503031157 15 76 8.0 14.5 0.00 0.00 0.00 69 1033.0
20260503030651 15 44 8.0 14.5 0.00 0.00 0.00 69 1033.0
20260503025643 15 65 6.4 14.5 0.00 0.00 0.00 70 1033.1
20260503025144 15 62 6.4 14.5 0.00 0.00 0.00 72 1033.2
20260503024642 15 87 6.4 14.5 0.00 0.00 0.00 70 1033.3
20260503023142 15 78 8.0 14.5 0.00 0.00 0.00 71 1033.3
20260503022642 15 88 8.0 12.9 0.00 0.00 0.00 70 1033.3
20260503022141 15 87 8.0 14.5 0.00 0.00 0.00 71 1033.4
20260503021141 15 109 8.0 14.5 0.00 0.00 0.00 71 1033.4